Regional Weather Roundup
Issued by NWS

Home | Current Version | Previous Version | Text Only | Print | Product List | Glossary On
Versions: 1 2 3 4 5 6 7 8 9 10 11 12 13 14 15 16 17 18 19 20 21 22 23 24 25 26 27 28 29 30 31 32 33 34 35 36 37 38 39 40 41 42 43 44 45 46 47 48 49 50
000
ASUS43 KBIS 280510
RWRND

NORTH DAKOTA REGIONAL WEATHER ROUNDUP
NATIONAL WEATHER SERVICE BISMARCK ND
1200 AM CDT MON JUL 28 2014

NOTE: "FAIR" INDICATES FEW OR NO CLOUDS BELOW 12,000 FEET WITH NO
SIGNIFICANT WEATHER AND/OR OBSTRUCTIONS TO VISIBILITY.


NDZ001>003-009>011-017-280600-
NORTHWEST NORTH DAKOTA

CITY           SKY/WX    TMP DP  RH WIND       PRES   REMARKS
WILLISTON      CLEAR     58  52  80 CALM      30.29S
MINOT          CLEAR     56  52  86 CALM      30.28S
MINOT AFB      CLEAR     53  53  99 W1        30.28R
$$

NDZ018>021-031>035-040>046-280600-
SOUTHWEST NORTH DAKOTA

CITY           SKY/WX    TMP DP  RH WIND       PRES   REMARKS
BISMARCK       CLEAR     53  50  89 CALM      30.30R
DICKINSON      CLEAR     53  49  86 S5        30.31R
GARRISON         N/A     53  50  89 CALM      30.29S
HETTINGER ARPT CLEAR     53  50  89 E3        30.33R
$$

NDZ004>008-012>016-024-026-027-054-280600-
NORTHEAST NORTH DAKOTA

CITY           SKY/WX    TMP DP  RH WIND       PRES   REMARKS
GRAND FORKS    CLOUDY    61  56  83 NW6         N/A
GRND FRKS AFB  CLOUDY    60  57  89 NW7       30.23S
DEVILS LAKE    CLOUDY    57  52  82 N6        30.25R
$$

NDZ022-023-025-028>030-036>039-047>053-280600-
SOUTHEAST NORTH DAKOTA

CITY           SKY/WX    TMP DP  RH WIND       PRES   REMARKS
FARGO          CLOUDY    60  57  89 NW6       30.21R
JAMESTOWN      CLOUDY    61  55  81 NW7       30.25S
$$




USA.gov is the U.S. government's official web portal to all federal, state and local government web resources and services.